TimeMDT,TemperatureF,Dew PointF,Humidity,Sea Level PressureIn,VisibilityMPH,Wind Direction,Wind SpeedMPH,Gust SpeedMPH,PrecipitationIn,Events,Conditions,WindDirDegrees,DateUTC
12:15 AM,57.2,37.4,48,29.97,10.0,SE,6.9,-,N/A,,Overcast,130,2013-04-05 06:15:00
12:35 AM,59.0,33.8,39,29.97,10.0,SE,4.6,-,N/A,,Overcast,130,2013-04-05 06:35:00
12:55 AM,59.0,35.6,42,29.96,10.0,SSE,5.8,-,N/A,,Overcast,160,2013-04-05 06:55:00
1:15 AM,57.2,37.4,48,29.96,10.0,Calm,Calm,-,N/A,,Mostly Cloudy,0,2013-04-05 07:15:00
1:35 AM,57.2,33.8,41,29.96,10.0,SSW,5.8,-,N/A,,Overcast,200,2013-04-05 07:35:00
1:55 AM,59.0,33.8,39,29.96,10.0,Calm,Calm,-,N/A,,Mostly Cloudy,0,2013-04-05 07:55:00
2:15 AM,59.0,33.8,39,29.96,10.0,Calm,Calm,-,N/A,,Overcast,0,2013-04-05 08:15:00
2:35 AM,60.8,33.8,36,29.94,10.0,SE,4.6,-,N/A,,Overcast,140,2013-04-05 08:35:00
2:55 AM,57.2,33.8,41,29.94,10.0,ESE,4.6,-,N/A,,Overcast,120,2013-04-05 08:55:00
3:15 AM,55.4,37.4,51,29.93,10.0,East,4.6,-,N/A,,Overcast,100,2013-04-05 09:15:00
3:35 AM,53.6,37.4,54,29.93,10.0,East,5.8,-,N/A,,Overcast,100,2013-04-05 09:35:00
3:55 AM,55.4,37.4,51,29.93,10.0,ESE,4.6,-,N/A,,Overcast,120,2013-04-05 09:55:00
4:15 AM,55.4,39.2,54,29.94,10.0,SW,8.1,-,N/A,,Overcast,220,2013-04-05 10:15:00
4:35 AM,55.4,42.8,63,29.93,10.0,NNE,4.6,-,N/A,,Overcast,20,2013-04-05 10:35:00
4:55 AM,53.6,39.2,58,29.92,10.0,ENE,5.8,-,N/A,,Overcast,70,2013-04-05 10:55:00
5:15 AM,53.6,37.4,54,29.92,10.0,NE,4.6,-,N/A,,Overcast,50,2013-04-05 11:15:00
5:35 AM,53.6,37.4,54,29.92,10.0,North,5.8,-,N/A,,Overcast,10,2013-04-05 11:35:00
5:55 AM,53.6,35.6,51,29.92,10.0,NNW,5.8,-,N/A,,Overcast,330,2013-04-05 11:55:00
6:15 AM,55.4,33.8,44,29.92,10.0,NNW,5.8,-,N/A,,Overcast,340,2013-04-05 12:15:00
6:35 AM,55.4,37.4,51,29.93,10.0,SW,4.6,-,N/A,,Overcast,230,2013-04-05 12:35:00
6:48 AM,57.2,35.6,44,29.93,15.0,SSW,4.6,-,N/A,,Overcast,200,2013-04-05 12:48:00
7:55 AM,51.8,39.2,62,29.97,15.0,NNW,20.7,27.6,N/A,Rain,Light Rain,330,2013-04-05 13:55:00
8:53 AM,50.0,39.2,66,29.99,15.0,NW,23.0,29.9,N/A,,Overcast,310,2013-04-05 14:53:00
9:55 AM,46.4,39.2,76,30.03,6.0,NW,28.8,36.8,N/A,Rain,Light Rain,310,2013-04-05 15:55:00
10:48 AM,44.6,39.2,81,30.08,6.0,NW,17.3,-,N/A,Rain,Light Rain,310,2013-04-05 16:48:00
11:50 AM,44.6,42.8,93,30.07,15.0,ENE,8.1,-,N/A,,Mostly Cloudy,70,2013-04-05 17:50:00
12:52 PM,50.0,44.6,82,30.06,15.0,SSE,9.2,-,N/A,,Mostly Cloudy,150,2013-04-05 18:52:00
1:47 PM,51.8,42.8,71,30.05,15.0,South,9.2,-,N/A,,Scattered Clouds,190,2013-04-05 19:47:00
2:57 PM,53.6,41.0,62,30.04,15.0,South,5.8,-,N/A,,Scattered Clouds,190,2013-04-05 20:57:00
3:47 PM,53.6,37.4,54,30.03,15.0,SSW,6.9,-,N/A,,Scattered Clouds,210,2013-04-05 21:47:00
4:47 PM,55.4,37.4,51,30.02,15.0,Variable,3.5,-,N/A,,Scattered Clouds,0,2013-04-05 22:47:00
5:47 PM,55.4,37.4,51,30.02,15.0,WSW,5.8,-,N/A,,Scattered Clouds,250,2013-04-05 23:47:00
6:49 PM,55.4,37.4,51,30.01,15.0,Variable,3.5,-,N/A,,Partly Cloudy,0,2013-04-06 00:49:00
7:47 PM,53.6,35.6,51,30.01,15.0,WSW,4.6,-,N/A,,Partly Cloudy,240,2013-04-06 01:47:00
8:47 PM,50.0,37.4,62,30.03,15.0,WNW,5.8,-,N/A,,Partly Cloudy,300,2013-04-06 02:47:00
9:15 PM,51.8,37.4,58,30.04,10.0,WNW,9.2,-,N/A,,Clear,300,2013-04-06 03:15:00
9:35 PM,50.0,35.6,58,30.04,10.0,NW,6.9,-,N/A,,Clear,310,2013-04-06 03:35:00
9:55 PM,48.2,37.4,66,30.05,10.0,NW,3.5,-,N/A,,Clear,320,2013-04-06 03:55:00
10:15 PM,48.2,37.4,66,30.05,10.0,East,3.5,-,N/A,,Clear,90,2013-04-06 04:15:00
10:35 PM,46.4,35.6,66,30.05,10.0,East,5.8,-,N/A,,Clear,90,2013-04-06 04:35:00
10:55 PM,46.4,37.4,71,30.05,10.0,East,3.5,-,N/A,,Clear,100,2013-04-06 04:55:00
11:15 PM,46.4,37.4,71,30.05,10.0,Calm,Calm,-,N/A,,Clear,0,2013-04-06 05:15:00
11:35 PM,44.6,37.4,76,30.04,10.0,ESE,4.6,-,N/A,,Clear,120,2013-04-06 05:35:00
11:55 PM,42.8,39.2,87,30.03,10.0,SSE,8.1,-,N/A,,Clear,150,2013-04-06 05:55:00